Weather History for Pompano Beach, FL

Change the Weather History Date:

Monday, September 16, 2013

  Actual Average Record
Temperature  
Mean Temperature 82 °F -  
Max Temperature 84 °F 90 °F 98 °F (1973)
Min Temperature 80 °F 74 °F 63 °F (1974)
Cooling Degree Days 17    
Growing Degree Days 32 (Base 50)    
Moisture  
Dew Point 74 °F    
Average Humidity 76    
Maximum Humidity 84    
Minimum Humidity 65    
Precipitation  
Precipitation 0.04 in - - ()
Sea Level Pressure  
Sea Level Pressure 30.01 in    
Wind  
Wind Speed 12 mph (ENE)    
Max Wind Speed 17 mph    
Max Gust Speed 22 mph    
Visibility 10 miles    
Events Thunderstorm    
Averages and records for this station are not official NWS values.
T = Trace of Precipitation, MM = Missing Value Source: NWS Daily Summary

Daily Weather History Graph

Daily Weather History Graph

Search for Another Location

Airport:

Trip Planner

Search our weather history database for the weather conditions in past years. The results will help you decide how hot, cold, wet, or windy it might be!

Date:

Astronomy

Sep. 16, 2013 Rise Set
Actual Time 7:06 AM EDT 7:23 PM EDT
Civil Twilight 6:43 AM EDT 7:46 PM EDT
Nautical Twilight 6:16 AM EDT 8:13 PM EDT
Astronomical Twilight 5:49 AM EDT 8:40 PM EDT
Moon 5:20 PM EDT (9/16) 4:05 AM EDT (9/16)
Length of Visible Light 13h 02m
Length of Day
12h 16m
Waxing Gibbous, 90% of the Moon is Illuminated
Sep 16
Waxing Gibbous
Sep 19
Full
Sep 26
Last Quarter
Oct 4
New
Oct 11
First Quarter

Hourly Weather History & Observations

Time (EDT) Temp. Heat Index Dew Point Humidity Pressure Visibility Wind Dir Wind Speed Gust Speed Precip Events Conditions
12:53 AM 82.9 °F 90.2 °F 75.0 °F 77% 30.01 in 10.0 mi East 15.0 mph 21.9 mph N/A   Unknown
1:53 AM 82.9 °F 90.2 °F 75.0 °F 77% 30.02 in 10.0 mi East 10.4 mph - 0.00 in   Unknown
2:53 AM 82.9 °F 90.8 °F 75.9 °F 79% 30.01 in 10.0 mi East 10.4 mph - N/A   Unknown
3:53 AM 82.9 °F 91.8 °F 77.0 °F 82% 30.00 in 10.0 mi East 10.4 mph - N/A   Unknown
4:53 AM 82.9 °F 91.8 °F 77.0 °F 82% 30.00 in 10.0 mi East 9.2 mph - N/A   Unknown
5:21 AM 82.4 °F 90.9 °F 77.0 °F 84% 30.00 in 10.0 mi East 9.2 mph - N/A Thunderstorm Unknown
5:40 AM 82.4 °F 90.9 °F 77.0 °F 84% 30.00 in 10.0 mi ENE 9.2 mph - N/A   Unknown
5:53 AM 82.9 °F 91.8 °F 77.0 °F 82% 30.01 in 10.0 mi East 9.2 mph - N/A   Unknown
6:53 AM 80.1 °F 84.5 °F 73.9 °F 81% 30.01 in 10.0 mi ENE 13.8 mph - 0.03 in   Unknown
7:53 AM 82.0 °F 87.9 °F 73.9 °F 76% 30.01 in 10.0 mi East 13.8 mph 19.6 mph N/A   Mostly Cloudy
8:53 AM 82.9 °F 88.8 °F 73.0 °F 72% 30.03 in 10.0 mi East 12.7 mph - 0.00 in   Mostly Cloudy
9:53 AM 84.9 °F 94.1 °F 75.9 °F 74% 30.04 in 10.0 mi East 15.0 mph - N/A   Mostly Cloudy
10:53 AM 84.9 °F 94.1 °F 75.9 °F 74% 30.06 in 10.0 mi ESE 10.4 mph - N/A   Mostly Cloudy
11:53 AM 84.0 °F 92.6 °F 75.9 °F 76% 30.04 in 10.0 mi East 17.3 mph 21.9 mph N/A   Mostly Cloudy
12:53 PM 81.0 °F 85.8 °F 73.0 °F 77% 30.04 in 10.0 mi ESE 12.7 mph 20.7 mph 0.00 in   Mostly Cloudy
1:53 PM 82.0 °F 86.3 °F 71.1 °F 69% 30.03 in 10.0 mi SE 8.1 mph - N/A   Mostly Cloudy
2:53 PM 82.0 °F 86.7 °F 72.0 °F 71% 30.00 in 10.0 mi East 4.6 mph - 0.01 in   Mostly Cloudy
3:53 PM 82.9 °F 87.5 °F 71.1 °F 67% 30.00 in 10.0 mi NE 8.1 mph - N/A   Mostly Cloudy
4:53 PM 82.9 °F 87.0 °F 70.0 °F 65% 29.99 in 10.0 mi NNE 9.2 mph - N/A   Overcast
5:53 PM 82.0 °F 87.4 °F 73.0 °F 74% 29.98 in 10.0 mi NNE 10.4 mph - N/A   Overcast
6:53 PM 82.0 °F 86.3 °F 71.1 °F 69% 29.98 in 10.0 mi NE 11.5 mph - N/A   Overcast
7:53 PM 81.0 °F 86.2 °F 73.9 °F 79% 29.99 in 10.0 mi ENE 10.4 mph - N/A   Unknown
8:53 PM 81.0 °F 86.2 °F 73.9 °F 79% 29.99 in 10.0 mi ENE 10.4 mph - N/A   Unknown
9:53 PM 81.0 °F 86.2 °F 73.9 °F 79% 30.01 in 10.0 mi ENE 11.5 mph - N/A   Unknown
10:53 PM 81.0 °F 86.2 °F 73.9 °F 79% 30.01 in 10.0 mi East 12.7 mph - N/A   Unknown
11:53 PM 82.0 °F 88.6 °F 75.0 °F 79% 30.01 in 10.0 mi ENE 11.5 mph 20.7 mph N/A   Unknown